| time (UTC) | temp F | wind direction | speed MPH | gust MPH | rain 1hr in | rain 24hr in | rain mn in | humidity % | barometer mb |
| 20260902074014 | 77 | 103 | 2.0 | 6.0 | 0.00 | 0.00 | 0.00 | 74 | 1021.6 |
| 20260902073015 | 77 | 101 | 3.0 | 5.0 | 0.00 | 0.00 | 0.00 | 74 | 1021.6 |
| 20260902072015 | 77 | 87 | 3.0 | 5.0 | 0.00 | 0.00 | 0.00 | 76 | 1021.6 |
| 20260902071016 | 76 | 93 | 2.0 | 4.0 | 0.00 | 0.00 | 0.00 | 76 | 1021.6 |
| 20260902070017 | 76 | 86 | 3.0 | 5.0 | 0.00 | 0.00 | 0.00 | 78 | 1021.5 |
| 20260902065017 | 75 | 46 | 2.0 | 5.0 | 0.00 | 0.00 | 0.00 | 79 | 1021.7 |
| 20260902064016 | 74 | 338 | 2.0 | 4.0 | 0.00 | 0.00 | 0.00 | 81 | 1021.4 |
| 20260902063016 | 73 | 338 | 1.0 | 3.0 | 0.00 | 0.00 | 0.00 | 81 | 1021.3 |
| 20260902062018 | 71 | 338 | 2.0 | 4.0 | 0.00 | 0.00 | 0.00 | 82 | 1021.2 |
| 20260902061015 | 71 | 338 | 2.0 | 3.0 | 0.00 | 0.00 | 0.00 | 82 | 1021.2 |
| 20260902060014 | 70 | 338 | 2.0 | 4.0 | 0.00 | 0.00 | 0.00 | 82 | 1021.1 |
| 20260902055015 | 70 | 338 | 2.0 | 3.0 | 0.00 | 0.00 | 0.00 | 82 | 1021.1 |
| 20260902054014 | 70 | 338 | 2.0 | 3.0 | 0.00 | 0.00 | 0.00 | 82 | 1021.1 |
| 20260902053016 | 70 | 338 | 2.0 | 4.0 | 0.00 | 0.00 | 0.00 | 82 | 1021.1 |
| 20260902052018 | 71 | 338 | 1.0 | 3.0 | 0.00 | 0.00 | 0.00 | 82 | 1021.1 |
| 20260902051014 | 71 | 338 | 3.0 | 4.0 | 0.00 | 0.00 | 0.00 | 82 | 1020.9 |
| 20260902050020 | 70 | 339 | 2.0 | 5.0 | 0.00 | 0.00 | 0.00 | 82 | 1020.7 |
| 20260902045016 | 70 | 338 | 2.0 | 4.0 | 0.00 | 0.00 | 0.00 | 82 | 1020.7 |
| 20260902044014 | 70 | 338 | 2.0 | 4.0 | 0.00 | 0.00 | 0.00 | 82 | 1020.7 |
| 20260902043014 | 70 | 344 | 3.0 | 5.0 | 0.00 | 0.00 | 0.00 | 81 | 1020.7 |
| 20260902042014 | 71 | 50 | 2.0 | 3.0 | 0.00 | 0.00 | 0.00 | 81 | 1020.8 |
| 20260902041014 | 71 | 50 | 2.0 | 3.0 | 0.00 | 0.00 | 0.00 | 81 | 1020.7 |
| 20260902040015 | 71 | 49 | 1.0 | 2.0 | 0.00 | 0.00 | 0.00 | 81 | 1020.8 |
| 20260902035015 | 71 | 331 | 2.0 | 4.0 | 0.00 | 0.00 | 0.00 | 80 | 1020.8 |
| 20260902034015 | 71 | 328 | 3.0 | 5.0 | 0.00 | 0.00 | 0.00 | 81 | 1020.8 |
| 20260902033013 | 71 | 324 | 3.0 | 7.0 | 0.00 | 0.00 | 0.00 | 81 | 1020.8 |
| 20260902032014 | 71 | 325 | 4.0 | 7.0 | 0.00 | 0.00 | 0.00 | 81 | 1020.8 |
| 20260902031016 | 71 | 336 | 3.0 | 5.0 | 0.00 | 0.00 | 0.00 | 82 | 1020.9 |
| 20260902030016 | 71 | 331 | 3.0 | 5.0 | 0.00 | 0.00 | 0.00 | 82 | 1020.9 |
| 20260902025013 | 71 | 335 | 3.0 | 6.0 | 0.00 | 0.00 | 0.00 | 82 | 1021.0 |
| 20260902024013 | 71 | 337 | 3.0 | 6.0 | 0.00 | 0.00 | 0.00 | 82 | 1021.1 |
| 20260902022014 | 72 | 344 | 3.0 | 5.0 | 0.00 | 0.00 | 0.00 | 83 | 1021.0 |
| 20260902021013 | 72 | 342 | 3.0 | 5.0 | 0.00 | 0.00 | 0.00 | 83 | 1020.9 |
| 20260902020014 | 72 | 332 | 2.0 | 4.0 | 0.00 | 0.00 | 0.00 | 83 | 1020.9 |
| 20260902015014 | 73 | 332 | 2.0 | 4.0 | 0.00 | 0.00 | 0.00 | 83 | 1020.9 |
| 20260902013014 | 73 | 331 | 2.0 | 4.0 | 0.00 | 0.00 | 0.00 | 83 | 1021.0 |
| 20260902012013 | 73 | 332 | 2.0 | 4.0 | 0.00 | 0.00 | 0.00 | 83 | 1021.1 |
| 20260902011014 | 74 | 332 | 2.0 | 4.0 | 0.00 | 0.00 | 0.00 | 83 | 1021.2 |
| 20260902010018 | 74 | 332 | 1.0 | 2.0 | 0.00 | 0.00 | 0.00 | 83 | 1021.3 |
| 20260902005013 | 74 | 332 | 0.0 | 2.0 | 0.00 | 0.00 | 0.00 | 83 | 1021.5 |
| 20260902004015 | 74 | 332 | 0.0 | 2.0 | 0.00 | 0.00 | 0.00 | 82 | 1021.4 |
| 20260902003013 | 74 | 332 | 1.0 | 3.0 | 0.00 | 0.00 | 0.00 | 82 | 1021.4 |
| 20260902002014 | 74 | 332 | 1.0 | 2.0 | 0.00 | 0.00 | 0.00 | 82 | 1021.4 |
| 20260902001015 | 74 | 332 | 0.0 | 2.0 | 0.00 | 0.00 | 0.00 | 82 | 1021.4 |
| 20260902000018 | 74 | 0 | 0.0 | 0.0 | 0.00 | 0.00 | 0.00 | 82 | 1021.3 |
| 20260901235013 | 74 | 332 | 0.0 | 2.0 | 0.00 | 0.00 | 0.00 | 82 | 1021.5 |
| 20260901234015 | 74 | 332 | 1.0 | 3.0 | 0.00 | 0.00 | 0.00 | 82 | 1021.4 |
| 20260901232017 | 74 | 332 | 1.0 | 2.0 | 0.00 | 0.00 | 0.00 | 82 | 1021.4 |
| 20260901231013 | 74 | 332 | 1.0 | 3.0 | 0.00 | 0.00 | 0.00 | 83 | 1021.5 |
| 20260901230017 | 73 | 332 | 1.0 | 3.0 | 0.00 | 0.00 | 0.00 | 83 | 1021.4 |
| 20260901225013 | 73 | 332 | 2.0 | 5.0 | 0.00 | 0.00 | 0.00 | 83 | 1021.3 |
| 20260901224017 | 73 | 332 | 2.0 | 4.0 | 0.00 | 0.00 | 0.00 | 83 | 1021.2 |
| 20260901223014 | 73 | 332 | 0.0 | 3.0 | 0.00 | 0.00 | 0.00 | 83 | 1021.1 |
| 20260901222015 | 73 | 0 | 0.0 | 0.0 | 0.00 | 0.00 | 0.00 | 83 | 1021.1 |
| 20260901221014 | 73 | 332 | 0.0 | 3.0 | 0.00 | 0.00 | 0.00 | 82 | 1021.2 |
| 20260901220015 | 73 | 332 | 2.0 | 4.0 | 0.00 | 0.00 | 0.00 | 82 | 1021.1 |
| 20260901215015 | 73 | 332 | 3.0 | 4.0 | 0.00 | 0.00 | 0.00 | 82 | 1020.9 |
| 20260901213015 | 73 | 332 | 3.0 | 4.0 | 0.00 | 0.00 | 0.00 | 81 | 1021.1 |
| 20260901212014 | 73 | 332 | 2.0 | 4.0 | 0.00 | 0.00 | 0.00 | 81 | 1021.0 |
| 20260901211013 | 73 | 332 | 2.0 | 3.0 | 0.00 | 0.00 | 0.00 | 81 | 1020.9 |
| 20260901210015 | 74 | 332 | 1.0 | 2.0 | 0.00 | 0.00 | 0.00 | 81 | 1020.8 |
| 20260901205020 | 73 | 332 | 1.0 | 3.0 | 0.00 | 0.00 | 0.00 | 81 | 1020.9 |
| 20260901203016 | 73 | 332 | 2.0 | 3.0 | 0.00 | 0.00 | 0.00 | 81 | 1020.8 |
| 20260901202013 | 73 | 332 | 1.0 | 3.0 | 0.00 | 0.00 | 0.00 | 81 | 1020.5 |
| 20260901201013 | 72 | 332 | 2.0 | 3.0 | 0.00 | 0.00 | 0.00 | 82 | 1020.4 |
| 20260901195016 | 72 | 338 | 2.0 | 4.0 | 0.00 | 0.00 | 0.00 | 81 | 1020.1 |
| 20260901194017 | 72 | 339 | 2.0 | 3.0 | 0.00 | 0.00 | 0.00 | 81 | 1020.1 |
| 20260901193016 | 73 | 339 | 2.0 | 4.0 | 0.00 | 0.00 | 0.00 | 80 | 1019.9 |
| 20260901192015 | 73 | 334 | 2.0 | 4.0 | 0.00 | 0.00 | 0.00 | 80 | 1019.8 |
| 20260901191013 | 74 | 328 | 2.0 | 4.0 | 0.00 | 0.00 | 0.00 | 80 | 1019.9 |
| 20260901190017 | 74 | 331 | 2.0 | 4.0 | 0.00 | 0.00 | 0.00 | 79 | 1019.8 |
| 20260901185015 | 75 | 187 | 1.0 | 4.0 | 0.00 | 0.00 | 0.00 | 78 | 1019.9 |
| 20260901183014 | 76 | 186 | 2.0 | 5.0 | 0.00 | 0.00 | 0.00 | 77 | 1019.7 |
| 20260901182014 | 77 | 186 | 2.0 | 4.0 | 0.00 | 0.00 | 0.00 | 76 | 1019.9 |
| 20260901181015 | 77 | 187 | 1.0 | 4.0 | 0.00 | 0.00 | 0.00 | 76 | 1019.8 |
| 20260901180017 | 78 | 187 | 1.0 | 4.0 | 0.00 | 0.00 | 0.00 | 75 | 1019.8 |
| 20260901175014 | 78 | 186 | 1.0 | 5.0 | 0.00 | 0.00 | 0.00 | 74 | 1019.8 |
| 20260901174017 | 79 | 187 | 1.0 | 4.0 | 0.00 | 0.00 | 0.00 | 74 | 1019.8 |
| 20260901173014 | 79 | 187 | 1.0 | 4.0 | 0.00 | 0.00 | 0.00 | 74 | 1019.9 |
| 20260901172016 | 78 | 186 | 2.0 | 4.0 | 0.00 | 0.00 | 0.00 | 76 | 1019.8 |
| 20260901171014 | 77 | 186 | 2.0 | 6.0 | 0.00 | 0.00 | 0.00 | 76 | 1020.0 |
| 20260901170011 | 77 | 208 | 3.0 | 7.0 | 0.00 | 0.00 | 0.00 | 76 | 1020.3 |
| 20260901165013 | 77 | 195 | 4.0 | 8.0 | 0.00 | 0.00 | 0.00 | 75 | 1020.2 |
| 20260901162015 | 77 | 193 | 5.0 | 11.0 | 0.00 | 0.00 | 0.00 | 76 | 1020.7 |
| 20260901160015 | 77 | 181 | 6.0 | 12.0 | 0.00 | 0.00 | 0.00 | 75 | 1020.5 |
| 20260901154014 | 77 | 183 | 7.0 | 14.0 | 0.00 | 0.00 | 0.00 | 75 | 1020.7 |
| 20260901153014 | 78 | 193 | 7.0 | 13.0 | 0.00 | 0.00 | 0.00 | 75 | 1020.8 |
| 20260901152014 | 78 | 194 | 7.0 | 13.0 | 0.00 | 0.00 | 0.00 | 74 | 1020.9 |
| 20260901151014 | 78 | 183 | 7.0 | 13.0 | 0.00 | 0.00 | 0.00 | 73 | 1020.7 |
| 20260901150015 | 78 | 171 | 7.0 | 13.0 | 0.00 | 0.00 | 0.00 | 73 | 1020.8 |
| 20260901145014 | 78 | 170 | 7.0 | 13.0 | 0.00 | 0.00 | 0.00 | 74 | 1020.6 |
| 20260901144014 | 78 | 182 | 7.0 | 13.0 | 0.00 | 0.00 | 0.00 | 75 | 1020.9 |
| 20260901143013 | 78 | 197 | 7.0 | 13.0 | 0.00 | 0.00 | 0.00 | 75 | 1021.1 |
| 20260901141012 | 78 | 203 | 4.0 | 8.0 | 0.00 | 0.00 | 0.00 | 75 | 1021.0 |
| 20260901140014 | 78 | 199 | 7.0 | 14.0 | 0.00 | 0.00 | 0.00 | 76 | 1021.4 |
| 20260901135014 | 78 | 199 | 7.0 | 13.0 | 0.00 | 0.00 | 0.00 | 76 | 1021.3 |
| 20260901134016 | 78 | 200 | 4.0 | 12.0 | 0.00 | 0.00 | 0.00 | 76 | 1021.1 |
| 20260901133013 | 78 | 181 | 7.0 | 13.0 | 0.00 | 0.00 | 0.00 | 75 | 1021.4 |
| 20260901132013 | 78 | 193 | 7.0 | 13.0 | 0.00 | 0.00 | 0.00 | 75 | 1021.7 |
| 20260901125012 | 78 | 179 | 9.0 | 15.0 | 0.00 | 0.00 | 0.00 | 74 | 1021.4 |
| 20260901124014 | 78 | 189 | 8.0 | 14.0 | 0.00 | 0.00 | 0.00 | 74 | 1021.8 |
| 20260901123014 | 78 | 197 | 8.0 | 13.0 | 0.00 | 0.00 | 0.00 | 74 | 1021.7 |
| 20260901122020 | 78 | 191 | 7.0 | 13.0 | 0.00 | 0.00 | 0.00 | 73 | 1021.9 |
| 20260901121018 | 79 | 170 | 6.0 | 14.0 | 0.00 | 0.00 | 0.00 | 73 | 1021.9 |
| 20260901120014 | 79 | 185 | 6.0 | 12.0 | 0.00 | 0.00 | 0.00 | 73 | 1022.0 |
| 20260901114014 | 79 | 189 | 8.0 | 13.0 | 0.00 | 0.00 | 0.00 | 72 | 1022.0 |
| 20260901113014 | 79 | 189 | 9.0 | 19.0 | 0.00 | 0.00 | 0.00 | 72 | 1022.1 |
| 20260901112014 | 79 | 177 | 11.0 | 18.0 | 0.00 | 0.00 | 0.00 | 71 | 1022.4 |
| 20260901111012 | 80 | 188 | 10.0 | 17.0 | 0.00 | 0.00 | 0.00 | 71 | 1022.3 |
| 20260901110017 | 79 | 183 | 9.0 | 16.0 | 0.00 | 0.00 | 0.00 | 72 | 1022.3 |
| 20260901105016 | 78 | 176 | 9.0 | 18.0 | 0.00 | 0.00 | 0.00 | 73 | 1022.4 |
| 20260901103012 | 78 | 191 | 8.0 | 15.0 | 0.00 | 0.00 | 0.00 | 74 | 1022.6 |
| 20260901102013 | 78 | 176 | 7.0 | 12.0 | 0.00 | 0.00 | 0.00 | 74 | 1022.7 |
| 20260901101018 | 78 | 163 | 9.0 | 16.0 | 0.00 | 0.00 | 0.00 | 74 | 1022.6 |
| 20260901100016 | 78 | 173 | 9.0 | 16.0 | 0.00 | 0.00 | 0.00 | 74 | 1022.6 |
| 20260901095013 | 79 | 179 | 7.0 | 14.0 | 0.00 | 0.00 | 0.00 | 73 | 1022.6 |
| 20260901094014 | 78 | 177 | 6.0 | 12.0 | 0.00 | 0.00 | 0.00 | 72 | 1022.6 |
| 20260901093013 | 77 | 190 | 7.0 | 14.0 | 0.00 | 0.00 | 0.00 | 74 | 1022.5 |
| 20260901092013 | 78 | 200 | 7.0 | 15.0 | 0.00 | 0.00 | 0.00 | 73 | 1022.4 |
| 20260901090014 | 78 | 198 | 4.0 | 11.0 | 0.00 | 0.00 | 0.00 | 72 | 1022.3 |
| 20260901083013 | 77 | 160 | 5.0 | 10.0 | 0.00 | 0.00 | 0.00 | 72 | 1021.9 |
| 20260901082012 | 77 | 177 | 3.0 | 8.0 | 0.00 | 0.00 | 0.00 | 72 | 1021.6 |
| 20260901081014 | 78 | 142 | 3.0 | 9.0 | 0.00 | 0.00 | 0.00 | 71 | 1021.5 |
| 20260901080021 | 78 | 147 | 4.0 | 9.0 | 0.00 | 0.00 | 0.00 | 72 | 1021.5 |
| 20260901075012 | 78 | 110 | 3.0 | 7.0 | 0.00 | 0.00 | 0.00 | 72 | 1021.5 |